Вернуться в каталог

THORAD AGENA D DEB

АктивенLEO
NORAD 4973·DEBRIS·🇺🇸 United States

Запущен Apr 8, 1970 с Vandenberg Space Force Base

Loading…

Ближайшие Пролёты

TLE

Source: Space-Track
1 04973U 70025GT  26229.34585013  .00000998  00000-0  61699-3 0  9997
2 04973 100.0374  20.6141 0090513 188.0947 171.8762 14.06075274848603

Отслеживайте THORAD AGENA D DEB в реальном времени с AllMySat

Download on the App Store